LIBQ  Monte Scuro  Airport

Italy

Add Bookmark
ICAO LIBQ
Type Airport
Status Operational
Latitude
39° 19' 12" N
39.320000
Longitude
16° 22' 47" E
16.380000
Local (DST + 2) UTC (GMT + 1)
Aug 28, 2015 04:11 Aug 28, 2015 02:11
Sunrise-Sunset Local UTC
Begin Civil Twilight 05:50 03:50
Sunrise 06:18 04:18
Sunset 07:33 17:33
End Civil Twilight 08:01 18:01
VFR
VFR
MVFR
MVFR
IFR
IFR
LIFR
LIFR
Unknown
Unavailable

Current Weather

METAR Observed VFR
LIBQ 280055Z 08012KT CAVOK 16/04 Q1023 Fri, Aug 28, 2015 @ 00:55 UTC
(1 Hour, 16 Minutes ago)
Visual Flight Rules
Wind Visibility Conditions
080° at 12 knots (22 kph) 10 km or more
  • No significant weather
Temperatures Readings Precipitation
Current Temp
16°C
61°F
Dewpoint
4°C
39°F
Humidity 45%
Altimeter 30.21" Hg
Sea Level Pressure 1,023 mb
Field Elevation
1,720 m
5,643 ft
None Recorded

Additional weather within a 92.6km radius of LIBQ

Map ICAO Location
LICA 47.6km S/SW (195°)
LIBC 70.2km E/SE (121°)
VFR
VFR
MVFR
MVFR
IFR
IFR
LIFR
LIFR
Unknown
Unavailable
-
-

CheckWX.com is intended as a tool to help pilots better visualize weather data. It is not intended as a substitute for an official weather briefing obtained from a Flight Service Station. CheckWX.com does not meet the FAA requirements for an official pre-flight weather briefing. Therefore, it's important that pilots still call and obtain an official FSS pre-flight weather briefing.

© 2007-2015 CheckWX.com
02:11:40 UTC